Minneapolis Crystal, MN

4:19 AM CDT on April 27, 2018 (GMT -0500)
Crystal

Weather History for KMIC - November, 2012

Change the Weather History Date:

Monday, November 19, 2012

  Actual Average Record
Temperature  
Mean Temperature 48 °F -  
Max Temperature 59 °F 38 °F 59 °F (2012)
Min Temperature 36 °F 24 °F 15 °F (2006)
Degree Days  
Heating Degree Days 18    
Moisture  
Dew Point 35 °F    
Average Humidity 61    
Maximum Humidity 89    
Minimum Humidity 44    
Precipitation  
Precipitation 0.00 in - - ()
Sea Level Pressure  
Sea Level Pressure 30.04 in    
Wind  
Wind Speed 6 mph (SSE)    
Max Wind Speed 9 mph    
Max Gust Speed -    
Visibility 10 miles    
Events      
Averages and records for this station are not official NWS values.
T = Trace of Precipitation, MM = Missing Value Source: NWS Daily Summary

Daily Weather History Graph

Daily Weather History Graph

Search for Another Location

Airport or City:

Astronomy

Nov. 19, 2012 Rise Set
Actual Time 7:17 AM CST 4:40 PM CST
Civil Twilight 6:45 AM CST 5:12 PM CST
Nautical Twilight 6:09 AM CST 5:48 PM CST
Astronomical Twilight 5:34 AM CST 6:23 PM CST
Moon 12:14 PM CST (11/19) 11:15 PM CST (11/19)
Length of Visible Light 10h 27m
Length of Day
9h 22m
Waxing Crescent, 41% of the Moon is Illuminated
Nov 19
Waxing Crescent
Nov 20
First Quarter
Nov 28
Full
Dec 6
Last Quarter
Dec 13
New

Hourly Weather History & Observations

Time (CST) Temp. Windchill Dew Point Humidity Pressure Visibility Wind Dir Wind Speed Gust Speed Precip Events Conditions
12:53 AM 46.9 °F - 33.1 °F 59% 30.08 in 10.0 mi SE 8.1 mph - N/A   Mostly Cloudy
1:53 AM 48.0 °F - 33.1 °F 56% 30.08 in 10.0 mi SSE 6.9 mph - N/A   Overcast
2:53 AM 46.9 °F - 33.1 °F 59% 30.06 in 10.0 mi SE 8.1 mph - N/A   Scattered Clouds
3:53 AM 46.9 °F - 33.1 °F 59% 30.05 in 10.0 mi SE 6.9 mph - N/A   Overcast
4:53 AM 48.0 °F - 33.1 °F 56% 30.04 in 10.0 mi SE 6.9 mph - N/A   Scattered Clouds
5:53 AM 48.0 °F - 34.0 °F 58% 30.04 in 10.0 mi ESE 3.5 mph - N/A   Overcast
6:53 AM 46.9 °F - 34.0 °F 61% 30.04 in 10.0 mi SSE 5.8 mph - N/A   Mostly Cloudy
7:53 AM 50.0 °F - 36.0 °F 59% 30.06 in 10.0 mi SSE 5.8 mph - N/A   Overcast
8:53 AM 50.0 °F - 37.0 °F 61% 30.05 in 10.0 mi SSE 8.1 mph - N/A   Overcast
9:53 AM 52.0 °F - 37.9 °F 59% 30.05 in 10.0 mi SE 5.8 mph - N/A   Overcast
10:53 AM 55.0 °F - 37.0 °F 51% 30.04 in 10.0 mi South 9.2 mph - N/A   Clear
11:53 AM 55.9 °F - 37.0 °F 49% 30.02 in 10.0 mi SSE 8.1 mph - N/A   Clear
12:53 PM 57.0 °F - 37.0 °F 47% 30.02 in 10.0 mi SSW 9.2 mph - N/A   Clear
1:53 PM 57.9 °F - 37.0 °F 46% 30.02 in 10.0 mi SSE 6.9 mph - N/A   Clear
2:53 PM 59.0 °F - 37.0 °F 44% 30.01 in 10.0 mi SSE 6.9 mph - N/A   Partly Cloudy
3:53 PM 55.9 °F - 37.0 °F 49% 30.01 in 10.0 mi SSE 5.8 mph - N/A   Clear
4:53 PM 50.0 °F - 36.0 °F 59% 30.03 in 10.0 mi Calm Calm - N/A   Clear
5:53 PM 46.9 °F - 36.0 °F 66% 30.03 in 10.0 mi Calm Calm - N/A   Clear
6:53 PM 45.0 °F - 36.0 °F 71% 30.05 in 10.0 mi Calm Calm - N/A   Clear
7:53 PM 42.1 °F - 35.1 °F 76% 30.05 in 10.0 mi Calm Calm - N/A   Clear
9:53 PM 36.0 °F - 32.0 °F 86% 30.05 in 9.0 mi Calm Calm - N/A   Clear
10:53 PM 36.0 °F - 33.1 °F 89% 30.06 in 7.0 mi Calm Calm - N/A   Clear
11:53 PM 39.9 °F 35.1 °F 36.0 °F 86% 30.08 in 8.0 mi NW 6.9 mph - N/A   Clear